Flag for Iran Weather past 2 weeks in Mashhad, Iran

Now
100 °F

Sunny.


Feels Like: 94 °F
Forecast: 65 / 104 °F
Wind: 5 mph from East

Location: Mashhad Airport

Current Time: Jul 26, 2014 at 3:47:01 PM

Latest Report: Jul 26, 2014 at 3:00 PM


Visibility: 10 mi

Pressure: 29.86 "Hg

Humidity: 3%

Dew point: 7 °F

Location of MashhadLocation

Historic Weather in Mashhad — Graph

°F

Mashhad temperature yesterday

Maximum temperature yesterday: 93 °F (at 3:00 PM)
Minimum temperature yesterday: 68 °F (at 4:20 AM)
Average temperature yesterday: 81 °F

Past Weeks' High & Low Weather Summary

 TemperatureHumidityPressure
High106 °F (Jul 22, 2:00 PM)47% (Jul 12, 4:20 AM)30.01 "Hg (Jul 12, 4:20 AM)
Low63 °F (Jul 18, 5:30 AM)3% (Jul 26, 1:55 PM)29.68 "Hg (Jul 22, 3:00 PM)
Average84 °F18%29.89 "Hg
* Reported Jul 11 2:30 PM — Jul 26 2:30 PM, Mashhad, Weather by CustomWeather, © 2014

Note: Actual official high and low records may vary slightly from our data, if they occured in-between our weather recording intervals... More about our weather records

Advertising

Mashhad weather history for previous 24 hours

 ConditionsComfort  
Time TempWeatherWind HumidityBarometerVisibility
2:30 PM
Jul 26
100 °FSunny.7 mph4%29.86 "Hg10 mi
1:55 PM100 °FSunny.9 mph3%29.86 "Hg10 mi
1:30 PM99 °FSunny.7 mph5%29.86 "Hg10 mi
1:00 PM97 °FSunny.5 mph5%29.89 "Hg10 mi
12:30 PM97 °FSunny.9 mph6%29.89 "Hg10 mi
11:55 AM95 °FSunny.5 mph7%29.89 "Hg10 mi
11:30 AM93 °FSunny.9 mph8%29.89 "Hg10 mi
11:00 AM91 °FSunny.5 mph8%29.89 "Hg10 mi
10:30 AM88 °FSunny.7 mph10%29.89 "Hg10 mi
9:55 AM86 °FSunny.7 mph10%29.89 "Hg10 mi
9:30 AM84 °FSunny.5 mph12%29.89 "Hg10 mi
9:00 AM84 °FSunny.5 mph12%29.89 "Hg10 mi
8:30 AM79 °FSunny.5 mph17%29.89 "Hg10 mi
8:00 AM79 °FSunny.7 mph18%29.89 "Hg10 mi
7:30 AM79 °FSunny.No wind15%29.89 "Hg10 mi
7:00 AM72 °FClear.No wind20%29.89 "Hg10 mi
6:30 AM68 °FClear.5 mph24%29.89 "Hg10 mi
6:00 AM66 °FClear.5 mph28%29.89 "Hg10 mi
5:30 AM66 °FClear.No wind26%29.89 "Hg10 mi
5:00 AM66 °FClear.No wind26%29.89 "Hg10 mi
4:20 AM66 °FClear.No wind22%29.86 "Hg10 mi
3:55 AM66 °FClear.No wind19%29.86 "Hg10 mi
3:30 AM66 °FClear.7 mph19%29.86 "Hg10 mi
3:00 AM66 °FClear.7 mph22%29.86 "Hg10 mi
2:30 AM73 °FClear.7 mph15%29.86 "Hg10 mi
1:59 AM73 °FClear.5 mph15%29.86 "Hg10 mi
1:30 AM73 °FClear.7 mph14%29.89 "Hg10 mi
12:59 AM75 °FClear.9 mph14%29.89 "Hg10 mi
12:30 AM75 °FClear.9 mph13%29.89 "Hg10 mi
12:00 AM77 °FClear.7 mph12%29.89 "Hg10 mi
11:30 PM
Jul 25
77 °FClear.9 mph12%29.89 "Hg10 mi
10:59 PM77 °FClear.7 mph12%29.89 "Hg10 mi
10:30 PM79 °FClear.5 mph12%29.89 "Hg10 mi
9:57 PM79 °FClear.9 mph10%29.89 "Hg10 mi
9:30 PM79 °FClear.7 mph11%29.86 "Hg10 mi
9:00 PM79 °FSunny.7 mph11%29.86 "Hg10 mi
8:30 PM82 °FSunny.9 mph9%29.86 "Hg10 mi
8:00 PM84 °FSunny.12 mph8%29.86 "Hg10 mi
7:30 PM88 °FSunny.7 mph7%29.86 "Hg10 mi
7:00 PM90 °FSunny.14 mph6%29.83 "Hg10 mi
6:30 PM91 °FSunny.12 mph6%29.83 "Hg10 mi
6:00 PM91 °FSunny.12 mph6%29.83 "Hg10 mi
5:30 PM91 °FSunny.14 mph6%29.83 "Hg10 mi
5:00 PM93 °FSunny.9 mph6%29.83 "Hg10 mi
4:30 PM93 °FSunny.12 mph6%29.83 "Hg10 mi
4:00 PM93 °FSunny.12 mph6%29.83 "Hg10 mi
3:30 PM91 °FSunny.7 mph6%29.83 "Hg10 mi
3:00 PM93 °FSunny.9 mph6%29.86 "Hg10 mi
Weather by CustomWeather, © 2014

See weather overviewHow to use our weather pages